Location: Saratoga Springs
(43.0831°N, 73.7850°W)
Time: 02:30:42
(UTC-04:00)

Vanguard 2 Rocket - Pass Details

Date: 25 April 2024
Orbit: 556 x 3304 km, 32.9° (Epoch: 17 May)

Event Time Altitude Azimuth Distance (km) Brightness Sun altitude
Rises 21:02:39 0° 237° (WSW) 5,341 11.2 -12.7°
Reaches altitude 10° 21:05:45 10° 232° (SW) 4,659 10.7 -13.2°
Maximum altitude 21:19:27 53° 161° (SSE) 3,373 9.4 -15.2°
Drops below altitude 10° 21:38:22 10° 92° (E) 6,259 10.7 -17.9°
Sets 21:43:21 0° 89° (E) 7,227 11.1 -18.6°
